Station TKEA2 - Tenakee Springs, AK Image indicating link to RSS feed of recent meteorological observations for station TKEA2


Conditions at TKEA2 as of
(11:12 pm AKDT on 05/29/2024)
0712 GMT on 05/30/2024:
     

Click on the graph icon in the table below to see a time series plot of the last five days of that observation.

5-day plot - Wind Direction Wind Direction (WDIR): N ( 360 deg true )
5-day plot - Wind Speed Wind Speed (WSPD): 1.0 kts
5-day plot - Wind Gust Wind Gust (GST): 2.9 kts
5-day plot - Atmospheric Pressure Atmospheric Pressure (PRES):30.18 in
5-day plot - Air Temperature Air Temperature (ATMP): 46.2 °F
5-day plot - Dew Point Dew Point (DEWP): 44.2 °F
5-day plot - Wind Speed at 10 Meters Wind Speed at 10 meters (WSPD10M): 1.9 kts
5-day plot - Wind Speed at 20 Meters Wind Speed at 20 meters (WSPD20M): 1.9 kts
5-day plot -  Wind Speed, Wind Gust and Atmospheric Pressure Combined plot of Wind Speed, Gust, and Air Pressure
Previous observations
TIME
(AKDT)
5-day plot - Wind Direction
WDIR
 
5-day plot - Wind Speed
WSPD
kts
5-day plot - Wind Gust
GST
kts
5-day plot - Wave Height
WVHT
ft
5-day plot - Dominant Wave Period
DPD
sec
5-day plot - Average Wave Period
APD
sec
5-day plot - Mean Wave Direction
MWD
 
5-day plot - Atmospheric Pressure
PRES
in
5-day plot - Pressure Tendency
PTDY
in
5-day plot - Air Temperature
ATMP
°F
5-day plot - Water Temperature
WTMP
°F
5-day plot - Dew Point
DEWP
°F
5-day plot - Salinity
SAL
psu
5-day plot - Visibility
VIS
nmi
5-day plot - Tide (above MLLW)
TIDE
ft
2024-05-29 11:02 pm N 1.9 2.9----30.18- 46.2- 44.1---
2024-05-29 10:52 pm N 1.9 2.9----30.18- 46.6- 44.2---
2024-05-29 10:42 pmNNE 1.9 2.9----30.18- 46.4- 44.2---
2024-05-29 10:32 pmNNE 1.9 2.9----30.18- 46.6- 44.6---
2024-05-29 10:22 pm N 1.9 2.9----30.17- 46.8- 44.4---
2024-05-29 10:12 pm S 2.9 5.1----30.17- 47.1- 44.6---
2024-05-29 10:02 pm SW 1.9 5.1----30.17- 46.4- 44.2---
2024-05-29 09:52 pmNNW 1.9 5.1----30.16- 46.2- 43.9---
2024-05-29 09:42 pm NW 2.9 5.1----30.16- 46.2- 43.3---
2024-05-29 09:32 pmNNW 2.9 5.1----30.16- 45.7- 43.5---
2024-05-29 09:22 pm N 2.9 4.1----30.16- 45.9- 43.7---
2024-05-29 09:12 pmNNW 1.9 4.1----30.16- 45.9- 43.9---
2024-05-29 09:02 pm N 2.9 2.9----30.15- 46.2- 44.1---
2024-05-29 08:52 pm N 1.9 2.9----30.15- 46.4- 44.2---
2024-05-29 08:42 pm N 1.9 2.9----30.15- 46.6- 44.4---
2024-05-29 08:32 pm N 1.9 4.1----30.15- 46.6- 44.4---
2024-05-29 08:22 pm N 1.9 4.1----30.15- 46.8- 44.4---
2024-05-29 08:12 pm N 1.9 2.9----30.14- 46.9- 44.1---
2024-05-29 08:02 pmNNE 2.9 5.1----30.14- 46.8- 43.2---
2024-05-29 07:52 pm NE 2.9 5.1----30.14- 46.8- 43.3---
2024-05-29 07:42 pm NE 2.9 4.1----30.14- 46.8- 43.2---
2024-05-29 07:32 pmENE 1.9 4.1----30.14- 47.1- 43.9---
2024-05-29 07:22 pm E 2.9 5.1----30.14- 46.9- 44.1---
2024-05-29 07:12 pmENE 4.1 7.0----30.13- 47.1- 44.1---
2024-05-29 07:02 pmENE 2.9 5.1----30.13- 47.7- 43.3---
2024-05-29 06:52 pm SE 5.1 7.0----30.13- 48.2- 42.6---
2024-05-29 06:42 pm S 8.0 12.0----30.13- 48.4- 42.8---
2024-05-29 06:32 pm SE 7.0 11.1----30.12- 48.9- 43.7---
2024-05-29 06:22 pmSSW 2.9 6.0----30.12- 50.0- 43.0---
2024-05-29 06:12 pm SW 4.1 6.0----30.12- 50.2- 42.4---
2024-05-29 06:02 pm W 4.1 7.0----30.12- 50.5- 42.4---
2024-05-29 05:52 pm W 4.1 6.0----30.11- 50.4- 42.1---
2024-05-29 05:42 pm W 4.1 6.0----30.11- 50.7- 42.1---
2024-05-29 05:32 pm W 4.1 6.0----30.11- 50.5- 42.1---
2024-05-29 05:22 pm W 5.1 7.0----30.11- 50.4- 42.1---
2024-05-29 05:12 pm W 6.0 8.0----30.11- 50.4- 42.8---
2024-05-29 05:02 pm W 4.1 8.0----30.11- 50.7- 43.7---
2024-05-29 04:52 pm N 2.9 5.1----30.11- 49.8- 44.8---
2024-05-29 04:42 pm N 2.9 7.0----30.11- 49.5- 44.8---
2024-05-29 04:32 pmNNW 1.9 5.1----30.11- 49.1- 45.1---
2024-05-29 04:22 pmNNW 1.9 4.1----30.11- 48.9- 44.8---
2024-05-29 04:12 pmWNW 4.1 8.0----30.11- 48.9- 43.2---
2024-05-29 03:52 pm W 8.9 11.1----30.10- 49.1- 43.2---
2024-05-29 03:42 pm W 2.9 5.1----30.10- 49.5- 43.2---
2024-05-29 03:32 pmSSW 4.1 8.0----30.10- 49.5- 43.5---
2024-05-29 03:22 pmWSW 4.1 6.0----30.10- 50.2- 43.3---
2024-05-29 03:12 pm W 5.1 7.0----30.10- 50.2- 43.0---
2024-05-29 03:02 pmWSW 8.9 11.1----30.09- 50.9- 42.6---
2024-05-29 02:52 pmWSW 8.0 12.0----30.08- 51.3- 42.8---
2024-05-29 02:42 pm SE 5.1 12.0----30.08- 52.3- 42.1---
2024-05-29 02:32 pm E 9.9 17.1----30.07- 52.2- 41.9---
2024-05-29 02:22 pm E 8.9 15.9----30.07- 52.3- 41.9---
2024-05-29 02:13 pm E 8.9 15.0----30.07- 52.5- 41.9---
2024-05-29 02:02 pm E 9.9 17.1----30.07- 52.5- 42.1---
2024-05-29 01:52 pm E 11.1 17.1----30.07- 52.5- 41.9---
2024-05-29 01:42 pm E 12.0 17.1----30.06- 52.3- 41.9---
2024-05-29 01:32 pm E 8.9 15.0----30.06- 52.7- 41.7---
2024-05-29 01:22 pm E 8.0 14.0----30.06- 52.7- 41.4---
2024-05-29 01:12 pm E 8.0 15.9----30.06- 52.5- 41.4---
2024-05-29 01:02 pm E 8.9 15.0----30.06- 52.0- 41.7---
2024-05-29 12:52 pm E 8.9 14.0----30.06- 51.8- 41.9---
2024-05-29 12:42 pm E 8.0 12.0----30.06- 51.3- 42.1---
2024-05-29 12:32 pm E 9.9 12.0----30.06- 50.7- 42.3---
2024-05-29 12:22 pmESE 9.9 14.0----30.06- 50.7- 42.4---
2024-05-29 12:12 pm E 12.0 15.0----30.06- 51.3- 41.4---
2024-05-29 12:02 pmESE 9.9 15.0----30.06- 50.9- 41.9---
2024-05-29 11:52 amESE 8.9 12.0----30.06- 50.7- 41.9---
2024-05-29 11:42 am E 8.0 13.0----30.05- 50.7- 41.9---
2024-05-29 11:32 amESE 8.9 12.0----30.05- 50.4- 41.9---
2024-05-29 11:22 am E 8.0 11.1----30.05- 50.5- 41.9---
2024-05-29 11:12 am E 8.0 13.0----30.05- 50.5- 42.1---
2024-05-29 11:02 am E 8.0 11.1----30.05- 50.0- 42.3---
2024-05-29 10:52 amESE 9.9 14.0----30.05- 49.3- 42.4---
2024-05-29 10:42 amESE 9.9 14.0----30.05- 49.3- 42.3---
2024-05-29 10:32 am E 7.0 9.9----30.04- 49.6- 41.7---
2024-05-29 10:22 am E 6.0 8.9----30.04- 49.1- 42.4---
2024-05-29 10:12 am E 7.0 9.9----30.04- 48.9- 42.6---
2024-05-29 10:02 am E 8.9 12.0----30.04- 48.7- 42.3---
2024-05-29 09:52 amESE 9.9 13.0----30.04- 49.1- 42.1---
2024-05-29 09:42 am E 8.9 12.0----30.03- 49.5- 41.5---
2024-05-29 09:32 am E 9.9 15.0----30.03- 49.8- 41.9---
2024-05-29 09:22 am E 8.9 13.0----30.03- 49.8- 41.7---
2024-05-29 09:12 amESE 8.9 12.0----30.02- 49.8- 41.9---
2024-05-29 09:02 amESE 7.0 9.9----30.02- 50.0- 41.7---
2024-05-29 08:52 am E 5.1 8.9----30.02- 50.0- 41.5---
2024-05-29 08:42 am E 6.0 8.9----30.02- 50.4- 41.5---
2024-05-29 08:32 am E 6.0 12.0----30.02- 50.4- 41.9---
2024-05-29 08:22 am E 5.1 8.0----30.02- 49.8- 42.3---
2024-05-29 08:12 am E 5.1 8.0----30.02- 49.3- 42.1---
2024-05-29 08:02 am E 5.1 8.0----30.02- 48.6- 42.3---
2024-05-29 07:52 am E 5.1 8.9----30.02- 48.6- 42.4---
2024-05-29 07:42 am SE 1.9 5.1----30.02- 49.1- 43.7---
2024-05-29 07:32 am S 1.0 2.9----30.02- 48.4- 44.4---
2024-05-29 07:22 amWNW 1.9 2.9----30.02- 48.0- 44.4---
2024-05-29 07:12 am E 4.1 8.0----30.01- 47.7- 43.9---
2024-05-29 07:02 am E 2.9 5.1----30.01- 47.5- 43.9---
2024-05-29 06:52 am E 1.9 2.9----30.02- 46.9- 44.1---
2024-05-29 06:42 am NE 1.9 4.1----30.01- 45.9- 43.9---
2024-05-29 06:32 am N 1.9 4.1----30.01- 45.3- 43.3---
2024-05-29 06:22 am N 1.0 1.9----30.01- 45.3- 43.5---
2024-05-29 06:12 am N 1.9 2.9----30.01- 45.1- 43.2---
2024-05-29 06:02 am N 1.9 4.1----30.00- 45.1- 43.2---
2024-05-29 05:52 am N 1.9 2.9----30.00- 45.0- 43.0---
2024-05-29 05:42 am N 1.9 2.9----30.00- 45.0- 43.0---
2024-05-29 05:32 am N 1.9 4.1----30.00- 45.0- 43.0---
2024-05-29 05:22 am N 2.9 4.1----30.00- 44.8- 42.6---
2024-05-29 05:12 am N 2.9 4.1----29.99- 45.0- 42.6---
2024-05-29 05:02 am N 2.9 4.1----29.99- 45.3- 43.0---
2024-05-29 04:52 am N 2.9 2.9----29.99- 45.7- 43.0---
2024-05-29 04:42 amNNE 1.9 4.1----29.99- 45.7- 42.8---
2024-05-29 04:32 am N 1.9 4.1----29.99- 45.7- 43.3---
2024-05-29 04:22 am- 0.0 1.9----29.98- 45.9- 43.7---
2024-05-29 04:12 amNNE 1.9 2.9----29.98- 45.9- 43.5---
2024-05-29 04:02 am N 1.0 1.9----29.98- 46.2- 43.5---
2024-05-29 03:52 am NW 1.0 1.9----29.98- 46.2- 43.3---
2024-05-29 03:42 am NE 1.9 2.9----29.98- 46.4- 43.2---
2024-05-29 03:32 am N 1.9 4.1----29.98- 46.4- 43.2---
2024-05-29 03:22 am N 2.9 4.1----29.98- 46.6- 43.3---
2024-05-29 03:12 am N 1.9 2.9----29.98- 47.1- 43.3---
2024-05-29 03:02 am S 4.1 7.0----29.98- 47.3- 42.6---
2024-05-29 02:52 amSSW 5.1 8.9----29.98- 47.5- 42.8---
2024-05-29 02:42 am S 5.1 7.0----29.97- 47.7- 42.6---
2024-05-29 02:32 amSSW 4.1 7.0----29.97- 47.7- 42.4---
2024-05-29 02:22 amSSW 4.1 7.0----29.96- 47.7- 42.8---
2024-05-29 02:12 amSSW 6.0 8.9----29.96- 47.8- 42.6---
2024-05-29 02:02 amSSW 5.1 8.9----29.96- 47.8- 42.8---
2024-05-29 01:52 amSSW 5.1 9.9----29.96- 47.8- 43.0---
2024-05-29 01:42 am S 5.1 8.9----29.95- 48.2- 43.0---
2024-05-29 01:32 am S 2.9 6.0----29.95- 48.4- 42.8---
2024-05-29 01:22 am S 4.1 6.0----29.95- 48.6- 42.6---
2024-05-29 01:12 amSSW 4.1 6.0----29.95- 48.9- 42.6---
2024-05-29 01:02 am S 4.1 7.0----29.94- 49.1- 43.2---
2024-05-29 12:52 amSSW 1.9 4.1----29.94- 49.1- 43.7---
2024-05-29 12:42 amNNW 1.9 4.1----29.94- 48.9- 43.7---
2024-05-29 12:32 am N 1.9 2.9----29.94- 49.3- 43.7---
2024-05-29 12:22 am N 1.0 1.9----29.93- 49.6- 43.9---
2024-05-29 12:12 am S 1.9 4.1----29.93- 49.6- 43.7---
2024-05-29 12:02 amSSE 1.9 5.1----29.93- 49.6- 43.9---
2024-05-28 11:52 pm SW 1.0 2.9----29.93- 49.8- 43.9---
2024-05-28 11:42 pm SW 1.0 4.1----29.93- 49.8- 43.7---
2024-05-28 11:32 pmSSW 1.9 4.1----29.93- 50.2- 43.7---
2024-05-28 11:22 pm S 2.9 5.1----29.93- 50.2- 43.7---
2024-05-28 11:12 pmESE 1.9 5.1----29.93- 50.0- 43.9---
2024-05-28 11:02 pmENE 1.9 2.9----29.92- 50.0- 44.2---
2024-05-28 10:52 pm- 0.0 1.9----29.92- 50.2- 44.1---